Location: Gwatt
(46.7204°N, 7.6223°E)
Time: 02:17:07
(UTC+00:00)

SPOT 3 Rocket - Pass Details

Date: 18 September 2020
Orbit: 780 x 794 km, 98.7° (Epoch: 29 October)

Event Time Altitude Azimuth Distance (km) Brightness Sun altitude
Exits shadow 20:03:36 47° 192° (SSW) 1,029 3.9 -25.0°
Maximum altitude 20:05:01 69° 257° (WSW) 836 3.7 -25.2°
Drops below altitude 10° 20:10:10 10° 341° (NNW) 2,344 6.7 -25.9°
Sets 20:12:31 0° 344° (NNW) 3,278 7.5 -26.3°
